Location: Newark
(49.1939°N, 0.8136°E)
Time: 06:09:37
(UTC+00:00)

Envisat - Pass Details

Date: 26 November 2019
Orbit: 764 x 766 km, 98.1° (Epoch: 06 December)

Event Time Altitude Azimuth Distance (km) Brightness Sun altitude
Rises 06:37:37 0° 16° (NNE) 3,244 6.2 -7.4°
Reaches altitude 10° 06:39:58 10° 21° (NNE) 2,313 5.5 -7.0°
Maximum altitude 06:45:00 60° 101° (E) 879 3.7 -6.3°
Drops below altitude 10° 06:50:00 10° 181° (S) 2,296 5.8 -5.5°
Sets 06:52:20 0° 185° (S) 3,217 6.5 -5.2°
